Location: *
(43.0409°N, 0.1694°E)
Time: 22:58:28
(UTC+00:00)

Cosmos 1151 Rocket - Pass Details

Date: 03 October 2023
Orbit: 589 x 613 km, 82.5° (Epoch: 05 December)

Event Time Altitude Azimuth Distance (km) Brightness Sun altitude
Exits shadow 04:19:36 16° 194° (SSW) 1,602 4.9 -18.8°
Maximum altitude 04:23:03 75° 279° (W) 638 2.9 -18.2°
Drops below altitude 10° 04:27:26 10° 5° (N) 1,982 5.8 -17.4°
Sets 04:29:40 0° 7° (N) 2,891 6.7 -17.0°
